Regional Weather Roundup
Issued by NWS

Home | Current Version | Previous Version | Text Only | Print | Product List | Glossary On
Versions: 1 2 3 4 5 6 7 8 9 10 11 12 13 14 15 16 17 18 19 20 21 22 23 24 25 26 27 28 29 30 31 32 33 34 35 36 37 38 39 40 41 42 43 44 45 46 47 48 49 50
000
ASUS43 KMKX 220100
RWRWI

WISCONSIN REGIONAL WEATHER ROUNDUP
NATIONAL WEATHER SERVICE MILWAUKEE/SULLIVAN WI
700 PM CST SUN DEC 21 2014

NOTE: "FAIR" INDICATES FEW OR NO CLOUDS BELOW 12,000 FEET WITH NO
SIGNIFICANT WEATHER AND/OR OBSTRUCTIONS TO VISIBILITY.

WIZ001-002-006>008-014>016-023>028-220200-
NORTHWEST WISCONSIN

CITY           SKY/WX    TMP DP  RH WIND       PRES   REMARKS
SUPERIOR ARPT  CLOUDY    34  32  92 S3        29.77S
ASHLAND        CLOUDY    33  32  96 SE3       29.81S
HAYWARD        LGT SNOW  34  32  92 S7        29.78S FOG     WCI  28
SIREN          LGT RAIN  34  33  97 S6        29.76S WCI  29
CUMBERLAND     LGT SNOW  32  32 100 SE8       29.77S WCI  25
RICE LAKE      CLOUDY    34  33  98 SE9       29.79S FOG     WCI  26
CHETEK         DRIZZLE   34  34  98 SE8       29.79S WCI  28
LADYSMITH      MIX PCPN  34  33  96 SE8       29.81F WCI  27
EAU CLAIRE     NOT AVBL
MENOMONIE      CLOUDY    37  37  99 SE7       29.79F FOG     WCI  31
NEW RICHMOND   CLOUDY    35  35 100 S8        29.77S FOG     WCI  29
OSCEOLA        CLOUDY    36  36 100 S9        29.78S FOG     WCI  29
$$

WIZ003>005-009-010-017-018-220200-
NORTH CENTRAL WISCONSIN

CITY           SKY/WX    TMP DP  RH WIND       PRES   REMARKS
MANITOWISH WTR LGT SNOW  32  32 100 S9        29.82S WCI  24
ARBOR VITAE    LGT SNOW  34  32  93 S9        29.83S WCI  27
WOODRUFF       LGT SNOW  34  32  93 S9        29.83S WCI  27
RHINELANDER    LGT SNOW  32  30  92 S10G18    29.85F FOG     WCI  24
EAGLE RIVER    LGT SNOW  32  32 100 S9        29.84F WCI  24
LAND O LAKES   LGT SNOW  33  32  98 S10G17    29.85S WCI  24
PHILLIPS       MIX PCPN  32  32  99 S9        29.80F WCI  24
TOMAHAWK       MIX PCPN  32  31  97 SE6       29.85S WCI  26
MEDFORD        LGT RAIN  32  32  99 SE12G21   29.83S WCI  23
MERRILL        LGT SNOW  33  33 100 S10G16    29.87S WCI  25
$$

WIZ029-030-035-036-043>047-220200-
CENTRAL WISCONSIN

CITY           SKY/WX    TMP DP  RH WIND       PRES   REMARKS
WAUSAU         CLOUDY    34  32  92 S15G22    29.87F FOG     WCI  24
MOSINEE        NOT AVBL
MARSHFIELD     CLOUDY    34  32  92 S16       29.86F FOG     WCI  24
STEVENS POINT  CLOUDY    32  32  99 S9        29.91F FOG     WCI  24
WAUPACA        CLOUDY    36  33  89 SE10      29.96F FOG     WCI  28
WAUTOMA        NOT AVBL
WISC RAPIDS    CLOUDY    35  32  88 S10       29.91F FOG     WCI  27
CAMP DOUGLAS   NOT AVBL
$$

WIZ011>013-019>022-031-037>040-048>050-220200-
NORTHEAST WISCONSIN

CITY           SKY/WX    TMP DP  RH WIND       PRES   REMARKS
ANTIGO         CLOUDY    31  31 100 S13       29.90F FOG     WCI  22
SHAWANO        CLOUDY    36  33  89 S8        29.97S FOG     WCI  30
OCONTO         CLOUDY    34  33  97 S8        30.01R WCI  27
STURGEON BAY   CLOUDY    36  34  93 S12G17    30.03S WCI  27
GREEN BAY      CLOUDY    36  31  82 S16       30.00S WCI  26
MANITOWOC      CLOUDY    37  34  87 S16       30.04S WCI  28
APPLETON       CLOUDY    34  32  93 S14       29.99S FOG     WCI  24
CLINTONVILLE   CLOUDY    34  32  93 S10       29.97S FOG     WCI  26
OSHKOSH        CLOUDY    35  30  82 S12       29.99S WCI  27
$$

WIZ032>034-041-042-053>061-220200-
SOUTHWEST WISCONSIN

CITY           SKY/WX    TMP DP  RH WIND       PRES   REMARKS
LA CROSSE      LGT RAIN  39  36  89 S20G28    29.84F WCI  29
SPARTA         CLOUDY    37  35  92 S13       29.88F WCI  29
VIROQUA        CLOUDY    35  35 100 S15G21    29.87S WCI  26
BOSCOBEL       CLOUDY    39  33  79 VRB6G17   29.93R WCI  35
PRAIRIE DU CHI CLOUDY    38  33  82 SE6       29.91S HAZE    WCI  34
PLATTEVILLE    CLOUDY    36  33  89 SE18      29.94S WCI  25
$$

WIZ056-057-062-063-064-067-068-220200-
SOUTH CENTRAL WISCONSIN

CITY           SKY/WX    TMP DP  RH WIND       PRES   REMARKS
REEDSBURG      CLOUDY    35  33  89 S6        29.93R WCI  30
BARABOO/DELLS  CLOUDY    35  32  90 S18       29.92F FOG     WCI  24
LONE ROCK      CLOUDY    40  31  70 S12       29.95S WCI  33
MINERAL POINT  CLOUDY    36  32  87 S14G22    29.94R WCI  27
MADISON        CLOUDY    36  30  79 S14       29.97S WCI  27
MIDDLETON      CLOUDY    37  32  81 S9        29.97S WCI  31
WATERTOWN      CLOUDY    35  32  87 S13G20    30.00S WCI  26
MONROE         CLOUDY    34  32  93 S15G21    29.96S WCI  24
JANESVILLE     CLOUDY    37  30  75 S18G24    29.99F WCI  27
$$

WIZ051-052-058>065-066-070>072-220200-
SOUTHEAST WISCONSIN

CITY           SKY/WX    TMP DP  RH WIND       PRES   REMARKS
MILWAUKEE      CLOUDY    36  28  73 S13       30.06S WCI  27
WAUKESHA       CLOUDY    34  28  80 SE12      30.04S WCI  25
MILWAUKEE/TIMM CLOUDY    36  28  75 S13       30.06S WCI  27
RACINE         CLOUDY    36  30  79 S14       30.08S WCI  27
BURLINGTON     CLOUDY    34  29  83 S9        30.05S WCI  26
KENOSHA        CLOUDY    36  29  75 S13       30.06S WCI  27
FOND DU LAC    CLOUDY    35  29  78 S18       29.99S WCI  24
SHEBOYGAN      CLOUDY    36  31  82 S14       30.03S WCI  27
WEST BEND      CLOUDY    34  30  86 S8        30.03S WCI  27
JUNEAU         CLOUDY    34  31  86 SE16G22   30.00F WCI  24
$$

LSZ147-162-220200-
LAKE SUPERIOR

STATION/POSITION TIME  TEMP    WIND        PRES    WAVE
                       AIR SEA DIR/SP/G            HT/PER
                 (UTC) (F)     (DEG/KT/KT) (MB)    (FT/S)
DEVILS ISLAND    0000   33     150/  8/ 11 1010.3F
PORT WING        0000   35     160/  4/  6 1008.8F
SAXON HARBOR     0000   35        CALM     1009.8S
$$

LMZ867-665-643>646-220200-
LAKE MICHIGAN

STATION/POSITION TIME  TEMP    WIND        PRES    WAVE
                       AIR SEA DIR/SP/G            HT/PER
                 (UTC) (F)     (DEG/KT/KT) (MB)    (FT/S)
CHAMBERS ISLAND  0000   37     140/  7/ 12 1016.3S
NORTHPORT PIER   0000   37     160/ 11/ 17 1016.9S
SISTER BAY       2313          180/ 15/ 19   N/A
ALGOMA LAKESHORE 0014          220/ 21/ 23   N/A
KEWAUNEE LAKESHO 0000   36     190/ 13/ 15 1016.2R
SHEBOYGAN LAKESH 0000   37 38  180/ 23/ 26 1017.7S
PORT WASHINGTON  0000   37     180/ 17/ 21 1018.3R
MILWAUKEE LAKESH 0000   36     170/ 13/ 16   N/A
KENOSHA   LAKESH 0000   36     170/ 13/ 17 1018.3S
$$

TC  - TEMPERATURE IN CELSIUS
VSB - VISIBILITY IN STATUTE MILES
WCI - WIND CHILL INDEX
HX  - HEAT INDEX



USA.gov is the U.S. government's official web portal to all federal, state and local government web resources and services.